Flag for Canada Weather past 2 weeks in Resolute Bay, Nunavut Territory, Canada

Now
37 °F

Light rain. Fog.


Feels Like: 29 °F
Forecast: 33 / 38 °F
Wind: 13 mph from Southeast

Location: Resolute

Current Time: Jul 22, 2014 at 6:13:27 PM

Latest Report: Jul 22, 2014 at 11:00 AM


Visibility: 0 mi

Pressure: 29.71 "Hg

Humidity: 100%

Dew point: 37 °F

Location of Resolute BayLocation

Historic Weather in Resolute Bay — Graph

°F

Resolute Bay temperature yesterday

Maximum temperature yesterday: 45 °F (at 12:00 AM)
Minimum temperature yesterday: 32 °F (at 9:00 PM)
Average temperature yesterday: 39 °F

Past Weeks' High & Low Weather Summary

 TemperatureHumidityPressure
High48 °F (Jul 7, 3:00 PM)100% (Jul 14, 8:00 AM)30.27 "Hg (Jul 14, 8:00 AM)
Low32 °F (Jul 8, 3:00 AM)57% (Jul 7, 11:00 AM)29.33 "Hg (Jul 18, 2:00 PM)
Average40 °F87%29.79 "Hg
* Reported Jul 7 11:00 AM — Jul 22 11:00 AM, Resolute Bay, Weather by CustomWeather, © 2014

Note: Actual official high and low records may vary slightly from our data, if they occured in-between our weather recording intervals... More about our weather records

Advertising

Resolute Bay weather history for previous 24 hours

 ConditionsComfort  
Time TempWeatherWind HumidityBarometerVisibility
11:00 AM
Jul 22
37 °FLight rain. Fog.13 mph100%29.71 "Hg0 mi
10:46 AMN/ALight rain.9 mphN/AN/A0 mi
10:00 AM37 °FLight rain. Mostly cloudy.12 mph100%29.72 "Hg10 mi
9:00 AM37 °FLight rain. Fog.8 mph100%29.73 "Hg1 mi
8:00 AM36 °FLight rain. Fog.7 mph100%29.74 "Hg1 mi
7:00 AM37 °FLight rain. Low clouds.6 mph100%29.75 "Hg10 mi
6:00 AM37 °FSprinkles. Low clouds.3 mph100%29.74 "Hg15 mi
5:00 AM36 °FFog.No wind100%29.75 "Hg10 mi
4:00 AM36 °FFog.3 mph100%29.75 "Hg0 mi
3:00 AM34 °FFog.3 mph100%29.75 "Hg0 mi
2:00 AM34 °FFog.No wind100%29.73 "Hg0 mi
1:55 AMN/AFog.No windN/AN/A0 mi
1:00 AM34 °FFog.3 mph100%29.73 "Hg0 mi
12:00 AM34 °FFog.3 mph100%29.73 "Hg0 mi
11:00 PM
Jul 21
32 °FIce fog.3 mph100%29.73 "Hg0 mi
10:00 PM32 °FIce fog.3 mph100%29.73 "Hg0 mi
9:00 PM32 °FFog.6 mph100%29.73 "Hg0 mi
8:00 PM34 °FFog.10 mph100%29.72 "Hg0 mi
7:00 PM34 °FFog.9 mph100%29.72 "Hg0 mi
6:00 PM34 °FFog.10 mph100%29.71 "Hg1 mi
Weather by CustomWeather, © 2014

See weather overviewHow to use our weather pages